Location: �perlecques
(50.8057°N, 2.1521°E)
Time: 06:26:22
(UTC+00:00)

STARS - Pass Details

Date: 08 April 2023
Orbit: 616 x 630 km, 98.1° (Epoch: 03 June)

Event Time Altitude Azimuth Distance (km) Brightness Sun altitude
Rises 22:49:12 0° 19° (NNE) 2,923 ? -30.2°
Reaches altitude 10° 22:51:28 10° 25° (NNE) 2,013 ? -30.3°
Enters shadow 22:53:18 23° 37° (NE) 1,342 ? -30.4°
